DC1RS Weather Reports


Display with metric or nautical units.
time (UTC)temp
F
wind
direction
speed
MPH
gust
MPH
rain 1hr
in
rain 24hr
in
rain mn
in
humidity
%
barometer
mb
20260906030610 50 71 0.0 0.0 0.00 0.00 0.00 93 1025.2
20260906030040 50 71 0.0 0.0 0.00 0.00 0.00 92 1025.2
20260906025540 51 71 0.0 0.0 0.00 0.00 0.00 92 1025.2
20260906025010 51 71 0.0 1.0 0.00 0.00 0.00 92 1025.1
20260906024702 51 71 0.0 0.0 0.00 0.00 0.00 92 1025.3
20260906023940 51 71 0.0 0.0 0.00 0.00 0.00 92 1025.1
20260906023631 51 83 1.0 2.0 0.00 0.00 0.00 91 1025.2
20260906022840 51 253 0.0 0.0 0.00 0.00 0.00 91 1025.2
20260906022310 51 253 0.0 0.0 0.00 0.00 0.00 92 1025.0
20260906021810 51 258 0.0 0.0 0.00 0.00 0.00 91 1025.2
20260906021241 51 258 0.0 0.0 0.00 0.00 0.00 91 1025.3
20260906020931 51 257 0.0 0.0 0.00 0.00 0.00 90 1025.2
20260906020210 52 257 0.0 0.0 0.00 0.00 0.00 89 1025.4
20260906015710 52 258 0.0 0.0 0.00 0.00 0.00 90 1025.2
20260906015210 52 316 0.0 0.0 0.00 0.00 0.00 89 1025.2
20260906014640 53 317 0.0 0.0 0.00 0.00 0.00 89 1025.0
20260906014140 53 258 0.0 0.0 0.00 0.00 0.00 89 1025.0
20260906013610 53 234 0.0 2.0 0.00 0.00 0.00 90 1025.0
20260906013110 52 221 2.0 2.0 0.00 0.00 0.00 91 1025.0
20260906012610 52 211 0.0 1.0 0.00 0.00 0.00 91 1025.1
20260906012300 52 311 0.0 0.0 0.00 0.00 0.00 90 1024.8
20260906011540 52 311 0.0 0.0 0.00 0.00 0.00 90 1025.2
20260906011010 52 311 0.0 0.0 0.00 0.00 0.00 90 1024.8
20260906010440 52 312 0.0 0.0 0.00 0.00 0.00 90 1024.7
20260906005940 53 313 0.0 0.0 0.00 0.00 0.00 89 1024.7
20260906005659 53 313 0.0 0.0 0.00 0.00 0.00 89 1025.0
20260906004940 53 312 0.0 0.0 0.00 0.00 0.00 88 1024.7
20260906004410 53 312 0.0 0.0 0.00 0.00 0.00 88 1024.8
20260906003910 53 312 0.0 0.0 0.00 0.00 0.00 87 1024.7
20260906003410 53 312 0.0 0.0 0.00 0.00 0.00 87 1024.5
20260906002840 54 312 0.0 0.0 0.00 0.00 0.00 86 1024.7
20260906002340 54 340 0.0 0.0 0.00 0.00 0.00 86 1024.8
20260906002030 54 340 0.0 1.0 0.00 0.00 0.00 85 1024.8
20260906001240 54 341 0.0 1.0 0.00 0.00 0.00 85 1024.7
20260906000740 54 341 1.0 2.0 0.00 0.00 0.00 86 1024.6
20260906000212 54 307 2.0 3.0 0.00 0.00 0.00 86 1024.6
20260905235640 55 323 1.0 2.0 0.00 0.00 0.00 85 1024.7
20260905235401 55 321 1.0 2.0 0.00 0.00 0.00 85 1024.4
20260905234610 55 7 0.0 0.0 0.00 0.00 0.00 85 1024.5
20260905234040 55 48 0.0 2.0 0.00 0.00 0.00 84 1024.4
20260905233539 55 67 0.0 2.0 0.00 0.00 0.00 84 1024.4
20260905233009 56 98 0.0 1.0 0.00 0.00 0.00 83 1024.4
20260905232701 56 96 2.0 7.0 0.00 0.00 0.00 82 1024.4
20260905231909 56 240 0.0 3.0 0.00 0.00 0.00 82 1024.2
20260905231409 56 264 1.0 2.0 0.00 0.00 0.00 81 1024.2
20260905230840 57 219 1.0 2.0 0.00 0.00 0.00 80 1024.2
20260905230310 57 261 1.0 2.0 0.00 0.00 0.00 81 1024.1
20260905230001 57 244 0.0 1.0 0.00 0.00 0.00 80 1024.1
20260905225210 57 221 1.0 2.0 0.00 0.00 0.00 80 1024.2
20260905224710 57 221 0.0 2.0 0.00 0.00 0.00 80 1024.1
20260905224140 57 231 3.0 3.0 0.00 0.00 0.00 82 1024.2
20260905223640 56 221 2.0 2.0 0.00 0.00 0.00 82 1024.1
20260905223329 56 169 0.0 0.0 0.00 0.00 0.00 84 1024.1
20260905222830 56 168 0.0 0.0 0.00 0.00 0.00 83 1023.9
20260905222040 56 167 0.0 0.0 0.00 0.00 0.00 82 1023.9
20260905221800 56 165 0.0 0.0 0.00 0.00 0.00 82 1024.0
20260905221040 57 117 1.0 2.0 0.00 0.00 0.00 81 1023.9
20260905220540 57 143 1.0 1.0 0.00 0.00 0.00 80 1023.9
20260905220010 58 274 0.0 0.0 0.00 0.00 0.00 79 1023.5
20260905215440 58 275 0.0 1.0 0.00 0.00 0.15 78 1023.7
20260905215159 58 281 1.0 2.0 0.00 0.00 0.15 78 1023.5
20260905214410 59 272 1.0 2.0 0.00 0.00 0.15 77 1023.9
20260905213910 59 272 1.0 2.0 0.00 0.00 0.15 76 1023.5
20260905213340 59 267 0.0 1.0 0.00 0.00 0.15 76 1023.5
20260905212810 60 279 1.0 2.0 0.00 0.00 0.15 75 1023.6
20260905212530 60 264 2.0 3.0 0.00 0.00 0.15 75 1023.4
20260905211810 60 256 3.0 6.0 0.00 0.00 0.15 75 1023.3
20260905211240 59 255 3.0 3.0 0.00 0.00 0.15 76 1023.2
20260905210740 59 217 2.0 3.0 0.00 0.00 0.15 76 1023.0
20260905210239 60 203 2.0 3.0 0.00 0.00 0.15 76 1023.2
20260905210000 59 219 1.0 2.0 0.00 0.00 0.15 75 1023.1
20260905205209 59 289 0.0 2.0 0.00 0.00 0.15 76 1023.1
20260905204709 59 293 1.0 3.0 0.00 0.00 0.15 77 1022.8
20260905204209 59 309 2.0 4.0 0.00 0.00 0.15 76 1022.9
20260905203640 60 329 0.0 1.0 0.00 0.00 0.15 76 1022.8
20260905203359 60 302 1.0 1.0 0.00 0.00 0.15 76 1022.9
20260905202610 60 269 2.0 3.0 0.00 0.00 0.15 75 1022.6
20260905202040 60 273 0.0 1.0 0.00 0.00 0.15 75 1022.7
20260905201801 60 291 2.0 3.0 0.00 0.00 0.15 76 1022.7
20260905201010 60 312 3.0 3.0 0.00 0.00 0.15 77 1023.0
20260905200441 61 299 1.0 1.0 0.00 0.00 0.15 76 1022.6
20260905195939 61 314 1.0 2.0 0.00 0.00 0.15 75 1022.4
20260905195439 61 314 1.0 2.0 0.00 0.00 0.15 74 1022.5
20260905195200 62 305 0.0 3.0 0.00 0.00 0.15 74 1022.6
20260905194409 62 255 1.0 2.0 0.00 0.00 0.15 74 1022.4
20260905193909 62 259 1.0 2.0 0.00 0.00 0.15 74 1022.5
20260905193409 62 220 2.0 3.0 0.00 0.00 0.15 74 1022.4
20260905192839 62 222 1.0 1.0 0.00 0.00 0.15 74 1022.2
20260905192339 62 284 1.0 2.0 0.00 0.00 0.15 72 1022.3
20260905191809 63 301 0.0 1.0 0.00 0.00 0.15 72 1022.3
20260905191239 63 301 0.0 1.0 0.00 0.00 0.15 71 1022.0
20260905190739 63 301 0.0 1.0 0.00 0.00 0.15 71 1022.2
20260905190209 64 302 0.0 0.0 0.00 0.00 0.15 70 1022.2
20260905185639 64 294 1.0 2.0 0.00 0.00 0.15 69 1022.1
20260905185359 64 315 1.0 2.0 0.00 0.00 0.15 67 1022.0
20260905184609 65 272 1.0 2.0 0.00 0.00 0.15 66 1021.9
20260905184040 65 285 2.0 3.0 0.00 0.00 0.15 65 1022.0
20260905183510 65 309 2.0 7.0 0.00 0.00 0.15 66 1021.5
20260905183010 65 298 0.0 3.0 0.00 0.00 0.15 67 1021.6
20260905182701 65 278 2.0 3.0 0.00 0.00 0.15 66 1021.6
20260905181910 66 285 1.0 4.0 0.00 0.00 0.15 66 1021.3
20260905181410 66 304 1.0 6.0 0.00 0.00 0.15 66 1021.4
20260905180840 66 281 1.0 3.0 0.00 0.00 0.15 66 1021.4
20260905180340 67 278 3.0 7.0 0.00 0.00 0.15 67 1021.1
20260905180100 67 302 5.0 6.0 0.00 0.00 0.15 67 1021.2
20260905175310 68 311 4.0 4.0 0.00 0.00 0.15 65 1021.0
20260905174810 69 269 2.0 4.0 0.00 0.00 0.15 64 1020.8
20260905174310 70 314 2.0 3.0 0.00 0.00 0.15 62 1020.9
20260905173740 70 294 3.0 3.0 0.00 0.00 0.15 59 1020.9
20260905173431 71 272 2.0 4.0 0.00 0.00 0.15 58 1020.8
20260905172710 71 297 2.0 3.0 0.00 0.00 0.15 57 1020.7
20260905172210 71 241 1.0 3.0 0.00 0.00 0.15 56 1020.6
20260905171640 72 299 6.0 8.0 0.00 0.00 0.15 55 1020.4
20260905171110 72 310 1.0 6.0 0.00 0.00 0.15 54 1020.6
20260905170610 73 272 3.0 8.0 0.00 0.00 0.15 53 1020.4
20260905170040 74 256 3.0 9.0 0.00 0.00 0.15 52 1020.2
20260905165800 74 258 4.0 9.0 0.00 0.00 0.15 52 1020.3
20260905165010 74 251 5.0 11.0 0.00 0.00 0.15 51 1020.3
20260905164440 74 272 5.0 10.0 0.00 0.00 0.15 51 1019.9
20260905163940 75 262 9.0 11.0 0.00 0.00 0.15 51 1020.1
20260905163410 75 252 4.0 11.0 0.00 0.00 0.15 51 1020.0
20260905163130 75 303 9.0 14.0 0.00 0.00 0.15 50 1020.0
20260905162410 75 233 6.0 11.0 0.00 0.00 0.15 50 1020.0
20260905161840 75 243 6.0 11.0 0.00 0.00 0.15 50 1019.9
20260905161310 75 302 6.0 15.0 0.00 0.00 0.15 51 1019.8
20260905160810 75 264 10.0 16.0 0.00 0.00 0.15 49 1019.7
20260905160310 75 332 3.0 10.0 0.00 0.00 0.15 50 1019.6
20260905160031 75 316 4.0 13.0 0.00 0.00 0.15 50 1019.7
20260905155240 75 312 11.0 15.0 0.00 0.00 0.15 50 1019.6
20260905154710 75 309 6.0 16.0 0.00 0.00 0.15 50 1019.4
20260905154210 75 273 8.0 21.0 0.00 0.00 0.15 49 1019.4
20260905153710 75 296 6.0 18.0 0.00 0.00 0.15 50 1019.5
20260905153430 75 305 11.0 15.0 0.00 0.00 0.15 50 1019.4
20260905152640 75 301 10.0 16.0 0.00 0.00 0.15 50 1019.4
20260905152140 75 291 2.0 16.0 0.00 0.00 0.15 50 1019.4
20260905151610 75 263 9.0 16.0 0.00 0.00 0.15 51 1019.4
20260905151110 75 259 9.0 14.0 0.00 0.00 0.15 52 1019.2
20260905150540 75 246 6.0 18.0 0.00 0.00 0.15 52 1019.2
20260905150300 76 299 6.0 13.0 0.00 0.00 0.15 52 1019.2
20260905145539 75 261 4.0 11.0 0.00 0.00 0.15 53 1019.3
20260905145009 75 281 11.0 21.0 0.00 0.00 0.15 51 1019.2
20260905144439 75 291 8.0 16.0 0.00 0.00 0.15 52 1019.2
20260905143939 75 196 4.0 15.0 0.00 0.00 0.15 52 1019.4
20260905143631 75 224 5.0 16.0 0.00 0.00 0.15 52 1019.5
20260905142840 76 276 11.0 15.0 0.00 0.00 0.15 51 1019.4
20260905142310 76 269 9.0 21.0 0.00 0.00 0.15 52 1019.3
20260905141810 76 268 10.0 16.0 0.00 0.00 0.15 53 1019.5
20260905141240 76 256 8.0 15.0 0.00 0.00 0.15 52 1019.4
20260905140740 76 222 7.0 11.0 0.00 0.00 0.15 53 1019.7
20260905140210 75 304 6.0 10.0 0.00 0.00 0.15 55 1019.6
20260905135640 74 262 3.0 7.0 0.00 0.00 0.15 55 1019.6
20260905135140 74 252 5.0 9.0 0.00 0.00 0.15 55 1019.7
20260905134831 75 303 7.0 9.0 0.00 0.00 0.15 53 1019.6
20260905134042 74 287 6.0 11.0 0.00 0.00 0.15 55 1019.9
20260905133540 75 277 4.0 13.0 0.00 0.00 0.15 54 1019.8
20260905133010 75 281 4.0 14.0 0.00 0.00 0.15 54 1019.8
20260905132440 75 242 6.0 17.0 0.00 0.00 0.15 53 1019.8
20260905132131 75 272 6.0 9.0 0.00 0.00 0.15 59 1020.0
20260905131410 75 243 7.0 9.0 0.00 0.00 0.15 58 1020.3
20260905130840 75 257 7.0 13.0 0.00 0.00 0.15 59 1020.4
20260905130340 75 286 3.0 9.0 0.00 0.00 0.15 60 1020.2
20260905130030 74 277 5.0 10.0 0.00 0.00 0.15 60 1020.4
20260905125500 73 263 3.0 8.0 0.00 0.00 0.15 61 1020.2
20260905124739 74 263 10.0 14.0 0.00 0.00 0.15 61 1020.4
20260905124209 74 295 7.0 11.0 0.00 0.00 0.15 61 1020.2
20260905123640 74 287 5.0 7.0 0.00 0.00 0.15 65 1020.3
20260905123140 73 311 5.0 7.0 0.00 0.00 0.15 68 1020.5
20260905122831 72 312 3.0 4.0 0.00 0.00 0.15 67 1020.2
20260905122040 72 305 6.0 7.0 0.00 0.00 0.15 68 1020.5
20260905121510 71 260 4.0 7.0 0.00 0.00 0.15 70 1020.5
20260905121010 70 165 2.0 4.0 0.00 0.00 0.15 71 1020.6
20260905120440 70 295 3.0 7.0 0.00 0.00 0.15 69 1020.8
20260905115939 70 229 1.0 2.0 0.00 0.00 0.15 70 1020.6
20260905115630 70 282 2.0 3.0 0.00 0.00 0.15 70 1020.9
20260905114839 70 303 4.0 6.0 0.00 0.00 0.15 73 1021.1
20260905114339 69 331 1.0 3.0 0.00 0.00 0.15 72 1021.0
20260905113810 68 277 1.0 4.0 0.00 0.00 0.15 72 1021.1
20260905113310 68 11 2.0 3.0 0.00 0.00 0.15 74 1021.1
20260905113031 68 312 1.0 6.0 0.00 0.00 0.15 75 1021.1
20260905112240 68 328 2.0 8.0 0.00 0.00 0.15 74 1021.2
20260905111740 69 322 3.0 4.0 0.00 0.00 0.15 73 1021.1
20260905111210 68 333 3.0 8.0 0.00 0.00 0.15 76 1021.3
20260905110710 68 323 2.0 3.0 0.00 0.00 0.15 75 1020.9
20260905110430 67 242 5.0 7.0 0.00 0.00 0.15 75 1021.1
20260905105640 67 308 0.0 4.0 0.00 0.00 0.15 76 1021.1
20260905105139 67 234 2.0 6.0 0.00 0.00 0.15 75 1021.2
20260905104901 66 324 1.0 2.0 0.00 0.00 0.15 75 1021.2
20260905104110 66 303 4.0 7.0 0.00 0.00 0.15 76 1021.4
20260905103540 66 298 2.0 6.0 0.00 0.00 0.15 77 1021.3
20260905103010 67 252 4.0 7.0 0.00 0.00 0.15 77 1021.2
20260905102440 67 328 3.0 7.0 0.00 0.00 0.15 78 1021.2
20260905102201 66 294 3.0 7.0 0.00 0.00 0.15 78 1021.1
20260905101410 66 319 1.0 4.0 0.00 0.00 0.15 77 1021.3
20260905100840 66 316 1.0 3.0 0.00 0.00 0.15 80 1021.2
20260905100340 66 281 4.0 8.0 0.00 0.00 0.15 77 1021.2
20260905095810 66 242 4.0 9.0 0.00 0.00 0.15 76 1021.1
20260905095501 65 333 2.0 8.0 0.00 0.00 0.15 77 1021.1
20260905094710 65 294 2.0 7.0 0.00 0.00 0.15 79 1021.3
20260905094210 64 267 3.0 6.0 0.00 0.00 0.15 78 1021.1
20260905093900 64 263 2.0 6.0 0.00 0.00 0.15 80 1021.4
20260905093110 64 284 6.0 10.0 0.00 0.00 0.15 81 1021.4
20260905092540 63 239 2.0 7.0 0.00 0.00 0.15 83 1021.6
20260905092010 63 228 2.0 4.0 0.00 0.00 0.15 82 1021.4
20260905091510 63 261 4.0 7.0 0.00 0.00 0.15 83 1021.7
20260905091231 63 284 3.0 4.0 0.00 0.00 0.15 83 1021.6
20260905090440 63 294 1.0 2.0 0.00 0.00 0.15 83 1021.9
20260905085939 63 291 4.0 4.0 0.00 0.00 0.15 81 1021.6
20260905085410 63 207 0.0 3.0 0.00 0.00 0.15 82 1021.4
20260905084840 63 265 1.0 3.0 0.00 0.00 0.15 84 1021.5
20260905084600 63 217 1.0 3.0 0.00 0.00 0.15 85 1021.5
20260905083810 62 218 4.0 6.0 0.00 0.00 0.15 86 1021.4
20260905083240 62 192 3.0 6.0 0.00 0.00 0.15 85 1021.5
20260905082710 62 216 2.0 2.0 0.00 0.00 0.15 86 1021.2
20260905082139 61 181 0.0 4.0 0.00 0.00 0.15 85 1021.1
20260905081829 62 192 0.0 4.0 0.00 0.00 0.15 88 1021.2
20260905081039 60 154 0.0 0.0 0.00 0.00 0.15 90 1021.4
20260905080540 60 152 0.0 1.0 0.00 0.00 0.15 91 1021.2
20260905080039 59 113 0.0 0.0 0.00 0.00 0.15 90 1021.1
20260905075539 59 106 0.0 1.0 0.00 0.00 0.15 90 1021.2
20260905075231 59 166 0.0 0.0 0.00 0.00 0.15 91 1021.0
20260905074440 59 172 1.0 2.0 0.00 0.00 0.15 92 1021.0
20260905073939 59 213 1.0 2.0 0.00 0.00 0.15 91 1021.0
20260905073410 58 208 0.0 3.0 0.00 0.00 0.15 91 1021.2
20260905072840 58 276 0.0 1.0 0.00 0.00 0.15 93 1021.0
20260905072559 58 313 2.0 3.0 0.01 0.00 0.15 93 1021.0
20260905071810 58 247 1.0 4.0 0.01 0.00 0.15 92 1021.2
20260905071240 58 231 2.0 3.0 0.01 0.00 0.15 93 1020.8
20260905070740 58 241 1.0 4.0 0.01 0.00 0.15 93 1021.0
20260905070239 58 210 3.0 6.0 0.01 0.00 0.15 92 1021.0
20260905065959 58 217 3.0 6.0 0.01 0.00 0.15 92 1020.5
20260905065209 58 245 1.0 3.0 0.01 0.00 0.15 94 1020.4
20260905064639 58 263 1.0 3.0 0.01 0.00 0.15 94 1020.3
20260905064139 57 250 3.0 4.0 0.02 0.00 0.15 94 1020.1
20260905063610 57 306 1.0 2.0 0.02 0.00 0.15 95 1020.2
20260905063110 57 247 1.0 4.0 0.02 0.00 0.15 95 1019.9
20260905062610 57 247 2.0 2.0 0.02 0.00 0.14 96 1019.9
20260905062040 57 254 3.0 3.0 0.03 0.00 0.14 95 1019.9
20260905061800 57 232 1.0 2.0 0.04 0.00 0.14 96 1019.7
20260905061040 57 245 4.0 7.0 0.05 0.00 0.14 96 1019.8
20260905060510 57 218 4.0 4.0 0.05 0.00 0.14 96 1019.4
20260905060010 57 197 0.0 0.0 0.05 0.00 0.14 95 1019.1
20260905055510 57 126 0.0 0.0 0.07 0.00 0.14 95 1018.9
20260905055230 57 128 2.0 2.0 0.07 0.00 0.13 95 1019.0
20260905054440 57 189 2.0 2.0 0.09 0.00 0.13 94 1019.3
20260905053940 57 150 3.0 3.0 0.10 0.00 0.13 94 1018.8
20260905053410 57 175 2.0 2.0 0.10 0.00 0.12 93 1018.8
20260905052840 57 109 1.0 2.0 0.09 0.00 0.12 93 1018.7
20260905052339 57 213 0.0 0.0 0.09 0.00 0.11 92 1018.9
20260905052031 57 199 0.0 1.0 0.08 0.00 0.10 91 1019.1
20260905051240 57 232 1.0 1.0 0.08 0.00 0.09 91 1019.1
20260905050710 58 352 2.0 6.0 0.09 0.00 0.09 90 1018.4
20260905050209 58 22 3.0 4.0 0.08 0.00 0.08 90 1018.5
20260905045639 58 21 2.0 3.0 0.06 0.00 0.06 88 1018.9
20260905045359 58 337 0.0 0.0 0.06 0.00 0.06 88 1019.0
20260905044609 59 323 3.0 6.0 0.04 0.00 0.04 86 1019.0
20260905044109 59 10 4.0 6.0 0.03 0.00 0.03 85 1018.9
20260905043540 59 17 7.0 9.0 0.02 0.00 0.02 85 1018.4
20260905043229 60 27 5.0 8.0 0.02 0.00 0.02 86 1018.7
20260905042440 60 307 4.0 8.0 0.02 0.00 0.02 84 1018.7
20260905041940 61 336 4.0 9.0 0.02 0.00 0.02 82 1018.4
20260905041439 62 275 6.0 11.0 0.01 0.00 0.01 79 1018.7
20260905040909 63 314 9.0 14.0 0.00 0.00 0.00 75 1018.2
20260905040631 64 317 4.0 9.0 0.00 0.00 0.00 71 1017.6
20260905035909 65 3 9.0 21.0 0.00 0.00 0.00 68 1017.3
20260905035409 65 300 6.0 15.0 0.00 0.00 0.00 66 1017.3
20260905034839 66 319 12.0 21.0 0.00 0.00 0.00 62 1017.0
20260905034339 67 16 12.0 23.0 0.00 0.00 0.00 62 1016.8
20260905034030 67 326 10.0 18.0 0.00 0.00 0.00 63 1016.6
20260905033239 67 342 13.0 16.0 0.00 0.00 0.00 65 1016.3
20260905032959 67 344 7.0 15.0 0.00 0.00 0.00 66 1016.2
20260905032209 68 356 6.0 19.0 0.00 0.00 0.00 65 1016.0
20260905031639 68 314 6.0 15.0 0.00 0.00 0.00 64 1016.0